• Processing (Info)

  • MPEC 2007-T45 : 2007 TE15

    The following Minor Planet Electronic Circular may be linked-to from your own Web pages, but must not otherwise be redistributed electronically.

    A form allowing access to any MPEC is at the bottom of this page.


    Read MPEC 2007-T44 Read MPEC 2007-T46


    M.P.E.C. 2007-T45                                Issued 2007 Oct.  9, 19:04 UT
    
         The Minor Planet Electronic Circulars contain information on unusual
             minor planets and routine data on comets.  They are published
       on behalf of Commission 20 of the International Astronomical Union by the
              Minor Planet Center, Smithsonian Astrophysical Observatory,
                              Cambridge, MA 02138, U.S.A.
    
                 Prepared using the Tamkin Foundation Computer Network
    
                                  MPC@CFA.HARVARD.EDU
              URL http://www.cfa.harvard.edu/iau/mpc.html  ISSN 1523-6714
    
                                       2007 TE15
    
    Observations:
         K07T15E* C2007 10 08.26331 23 47 33.79 -03 39 37.7          19.7 V ET045G96
         K07T15E  C2007 10 08.26998 23 47 40.74 -03 40 38.6          20.4 V ET045G96
         K07T15E  C2007 10 08.27681 23 47 47.83 -03 41 40.6          20.0 V ET045G96
         K07T15E  C2007 10 08.28354 23 47 54.88 -03 42 41.8          20.4 V ET045G96
         K07T15E  C2007 10 08.32253 23 48 35.35 -03 48 32.6          20.1 R ET045651
         K07T15E  C2007 10 08.32478 23 48 37.69 -03 48 52.4          20.7 R ET045651
         K07T15E  C2007 10 08.32508 23 48 38.08 -03 48 58.0          20.6 V ET045G96
         K07T15E  C2007 10 08.32639 23 48 39.45 -03 49 09.5          19.8 V ET045G96
         K07T15E  C2007 10 08.32702 23 48 39.89 -03 49 12.4          20.1 R ET045651
         K07T15E  C2007 10 08.32771 23 48 40.82 -03 49 21.4          20.0 V ET045G96
         K07T15E  C2007 10 09.27039 00 04 24.85 -05 58 21.3          20.8 V ET045G96
         K07T15E  C2007 10 09.27664 00 04 30.25 -05 59 08.1          20.6 V ET045G96
         K07T15E  C2007 10 09.28293 00 04 35.72 -05 59 54.5          20.9 V ET045G96
         K07T15E  C2007 10 09.28921 00 04 41.12 -06 00 40.8          20.6 V ET045G96
    
    Observer details:
    651 Grasslands Observatory, Tucson.  Observer J. E. McGaha.  0.62-m f/5.1
        reflector + CCD.
    G96 Mt. Lemmon Survey.  Observer E. Beshore.  Measurers E. C. Beshore,
        A. Boattini, G. J. Garradd, A. R. Gibbs, A. D. Grauer, R. E. Hill,
        R. A. Kowalski, S. M. Larson, R. H. McNaught.  1.5-m reflector + CCD.
    
    Orbital elements:
    2007 TE15                                                Earth MOID = 0.0326 AU
    Epoch 2007 Oct. 27.0 TT = JDT 2454400.5                 MPC
    M  24.10032              (2000.0)            P               Q
    n   0.40336806     Peri.  130.07406     +0.79453303     +0.60502196
    a   1.8141299      Node   192.97378     -0.60320568     +0.77665890
    e   0.4877984      Incl.   13.29555     -0.06971498     +0.17535500
    P   2.44           H   25.5           G   0.15           U   9
    Residuals in seconds of arc
    071008 G96  0.2+  0.2-    071008 651  0.2+  0.7+    071009 G96  0.3+  0.0
    071008 G96  0.0   0.3-    071008 G96  0.5+  0.6-    071009 G96  0.1-  0.3-
    071008 G96  0.5-  0.0     071008 G96  0.6+  0.3-    071009 G96  0.2+  0.0
    071008 G96  0.1+  0.0     071008 651  1.7-  0.8+    071009 G96  0.4-  0.3+
    071008 651  0.1+  0.2+    071008 G96  0.6+  0.3-
    
    Ephemeris:
    2007 TE15                a,e,i = 1.81, 0.49, 13                  q = 0.9292
    Date    TT    R. A. (2000) Decl.     Delta      r     Elong.  Phase     V
    2007 10 07    23 21.60   +00 00.4    0.0519   1.048   157.6    21.3    20.2
    2007 10 09    00 00.18   -05 22.3    0.0626   1.059   162.0    16.9    20.5
    2007 10 11    00 27.27   -08 58.3    0.0750   1.070   161.9    16.9    20.9
    2007 10 13    00 46.78   -11 23.9    0.0886   1.082   160.2    18.2    21.3
    2007 10 15    01 01.29   -13 04.2    0.103    1.094   158.3    19.7    21.7
    2007 10 17    01 12.38   -14 14.6    0.118    1.106   156.5    21.0    22.1
    
    Sonia Keys                   (C) Copyright 2007 MPC           M.P.E.C. 2007-T45
    

    Read MPEC 2007-T44 Read MPEC 2007-T46


    MPEC number:

    Enter an MPEC number in one of the following forms:

    • 1997-B01 (the full form)
    • J97B01 (the packed version of the full form)
    • B01 (the abbreviated form)